SCP
-0 -0 -0 -0 -0 -0 -0 -0 0 0 0 0 0 0 -0 -0 -0 0 0 0 0 0 0 -0 0 0 0 0 0 0 0 0 0 0 0 0 0 0 0 0 0 0 0 0 0
-0 -0 -0 -0 -0 -0 -0 -0 0 0 0 0 0 0 0 -0 0 0 0 0 0 0 -0 0 0 0 0 0 0 0 0 0 0 0 0 0 0 0 0 0 0 0 0 0 0
0 -0 -0 -0 -0 -0 -0 -0 0 0 0 0 -0 0 0 -0 0 0 0 0 0 0 -0 -0 0 0 0 0 0 0 0 0 0 0 0 0 0 0 0 0 0 0 0 0 0
0 0 -0 -0 -0 -0 -0 -0 -0 0 0 0 -0 0 0 0 0 0 0 0 0 0 -0 -0 -0 0 0 0 0 0 0 0 0 0 0 0 0 0 0 0 0 0 0 0 0
0 0 0 0 0 -0 -0 -0 -0 -0 0 0 -0 -0 0 0 0 -0 0 0 0 0 0 0 0 0 0 0 -0 -0 -0 -0 -0 0 0 0 0 0 0 0 0 0 0 0 0
0 0 0 0 0 -0 -0 -0 -0 -0 -0 0 0 0 0 -0 0 -0 -0 0 0 0 0 0 0 0 0 0 0 0 0 0 0 0 0 0 0 0 -0 0 0 0 0 0 0
0 0 0 0 0 -0 -0 -0 -0 -0 -0 -0 -0 -0 -0 0 0 -0 -0 0 -0 0 0 0 0 0 0 0 0 0 0 0 0 0 0 0 0 0 0 0 0 0 0 0 0
0 0 0 0 0 -0 0 -0 0 0 0 -0 -0 -0 -0 -0 -0 -0 -0 0 -0 0 0 0 0 0 0 0 0 0 0 0 0 0 0 0 0 0 0 0 0 0 0 0 0
-0 0 0 0 0 -0 0 0 0 -0 0 -0 0 -0 -0 -0 -0 -0 -0 -0 0 0 0 0 0 0 0 0 0 0 0 0 0 0 0 0 0 0 0 0 0 0 0 0 0
-0 -0 -0 0 0 -0 0 0 0 0 -0 -0 -0 0 0 -0 -0 -0 -0 -0 -0 0 0 -0 0 -0 -0 -0 0 0 0 0 0 0 0 0 0 0 0 0 0 0 0 0 0
-0 -0 -0 -0 0 0 0 0 0 0 -0 -0 -0 -0 -0 -0 -0 -0 -0 0 0 0 0 -0 -0 -0 -0 -0 0 0 0 0 0 0 0 0 0 0 0 0 0 0 0 0 0
-0 -0 -0 -0 0 0 0 0 0 0 -0 -0 -0 -0 -0 0 0 -0 -0 0 0 -0 -0 0 -0 0 0 0 0 0 0 0 -0 0 0 0 0 0 0 0 0 0 0 0 0
0 0 -0 0 0 0 0 0 0 0 0 0 0 -0 0 -0 -0 -0 -0 -0 0 -0 -0 -0 0 0 0 0 0 0 0 0 0 0 -0 0 -0 0 0 0 0 0 0 0 0
-0 -0 -0 0 0 0 0 -0 0 -0 0 -0 -0 0 0 -0 -0 0 -0 -0 -0 0 -0 0 0 0 0 0 0 -0 0 0 0 0 -0 0 -0 0 0 0 0 0 0 0 0
-0 -0 -0 0 0 -0 -0 -0 0 0 0 0 0 0 0 -0 -0 -0 -0 -0 0 0 -0 0 0 0 0 0 -0 0 0 -0 -0 -0 -0 0 -0 0 0 0 0 0 0 0 0
-0 -0 -0 -0 0 0 0 0 0 0 0 0 0 0 0 0 0 -0 0 0 -0 -0 0 0 0 0 -0 -0 -0 0 -0 -0 0 -0 -0 -0 0 0 0 0 0 0 0 0 0
-0 -0 -0 -0 -0 -0 0 0 0 0 0 -0 0 -0 0 0 0 0 0 0 -0 -0 -0 -0 0 0 0 0 0 0 0 -0 -0 -0 -0 0 0 0 0 0 0 0 0 0 0
-0 -0 0 0 0 0 0 -0 0 0 0 0 0 -0 0 -0 0 0 -0 0 0 -0 -0 -0 -0 0 0 0 -0 -0 -0 -0 -0 -0 0 0 0 0 0 0 0 0 0 0 0
-0 0 0 0 0 -0 -0 0 0 0 0 0 0 0 0 0 0 0 0 0 0 0 -0 -0 0 0 0 0 0 0 0 0 0 0 0 0 0 0 0 0 0 0 0 0 -0
0 0 0 0 0 0 0 0 0 0 0 0 0 0 0 0 0 0 0 0 0 0 0 0 -0 0 0 0 0 0 0 0 0 0 0 0 0 0 0 0 0 0 0 0 -0
0 0 0 -0 0 0 0 0 0 0 0 0 0 0 0 0 0 0 0 0 0 0 0 0 0 0 0 0 0 0 0 0 0 0 0 0 0 0 0 0 0 0 0 0 -0
0 0 0 0 0 0 0 0 0 0 0 0 0 0 0 0 0 0 0 0 0 0 0 0 0 0 0 0 0 0 0 0 0 0 0 0 0 0 0 0 0 0 0 -0 -0
0 0 0 0 0 0 0 0 0 0 0 0 0 0 0 0 0 0 0 0 0 0 0 0 0 0 0 0 0 0 0 0 0 0 0 0 0 0 0 0 0 0 0 0 0
0 0 0 0 0 0 0 0 0 0 0 0 0 0 0 0 0 0 0 0 0 0 0 0 0 0 0 0 0 0 0 0 0 0 0 0 0 0 0 0 0 0 0 0 0
0 0 0 0 0 0 0 0 0 0 0 0 0 0 0 0 0 0 0 0 0 0 0 0 0 0 0 0 0 0 0 0 0 0 0 0 0 0 0 0 0 0 0 0 0
0 0 0 0 0 0 0 0 0 0 0 0 0 0 0 0 0 0 0 0 0 0 0 0 0 0 0 0 0 0 0 0 0 0 0 0 0 0 0 0 0 0 0 0 0
0 0 0 0 0 0 0 0 0 0 0 0 0 0 0 0 0 0 0 0 0 0 0 0 0 0 0 0 0 0 0 0 0 0 0 0 0 0 0 0 0 0 0 0 0
Wind_Speed_500mb
31 31 33 35 36 38 39 32 24 20 16 15 10 9 23 30 38 24 28 34 26 14 10 11 13 7 10 9 13 7 11 16 12 7 3 23 22 24 26 14 22 13 16 19 7
34 33 37 38 37 39 40 33 27 24 18 14 8 9 15 13 11 42 31 18 13 13 5 9 9 3 5 9 17 9 6 18 12 3 8 19 26 31 22 29 17 22 16 22 5
36 35 37 38 38 41 40 28 22 24 20 17 11 4 6 12 2 29 34 22 16 14 10 3 5 0 6 6 5 15 8 19 12 21 18 18 21 29 27 17 33 34 31 28 16
36 34 36 35 36 44 42 32 23 25 22 21 31 21 21 6 5 41 38 28 19 13 9 4 5 6 6 7 13 7 18 11 19 20 17 25 28 24 26 32 41 38 32 33 29
36 34 37 36 35 43 42 36 36 32 31 24 17 14 15 26 25 49 34 26 22 15 11 7 5 7 8 1 16 19 15 17 25 26 30 23 24 25 35 22 28 24 28 26 25
34 34 36 34 33 36 34 31 30 36 39 32 28 32 22 42 41 41 32 24 20 18 16 12 9 8 6 3 9 7 9 18 16 22 18 27 29 7 25 32 35 33 34 32 34
35 34 32 34 29 30 26 24 26 26 31 36 23 26 68 30 40 34 28 30 29 17 14 14 11 11 13 2 9 7 10 12 7 20 10 31 12 1 21 39 43 48 42 42 41
34 33 32 33 26 19 17 21 21 14 13 18 16 29 29 43 47 30 33 18 20 22 17 17 17 10 14 15 3 7 5 4 13 30 22 26 8 27 47 38 40 38 46 46 43
33 33 31 34 29 17 19 13 18 27 33 47 26 16 14 49 68 56 41 38 18 16 25 18 13 24 25 5 5 14 8 14 12 24 27 24 21 37 39 37 37 43 39 44 48
33 34 32 33 29 14 9 40 31 9 5 16 55 9 36 43 48 64 26 47 19 10 11 25 13 23 28 25 8 19 16 18 21 25 30 21 24 30 38 40 44 46 49 52 52
33 34 32 34 35 26 5 3 4 20 63 47 25 19 25 44 27 69 45 32 24 29 16 41 27 26 32 23 13 14 17 22 29 20 29 24 22 24 38 47 49 50 53 55 57
33 34 32 23 36 27 14 9 20 26 34 33 28 31 21 32 32 83 61 30 40 36 5 10 34 24 20 31 14 17 18 19 14 32 27 24 12 27 36 43 49 53 56 60 64
33 33 35 20 33 31 32 26 28 21 7 21 33 34 32 27 28 59 56 25 23 28 33 31 22 19 24 31 30 14 19 29 30 33 20 21 24 15 22 45 49 52 52 57 63
32 33 35 33 21 29 32 18 17 11 5 27 30 29 41 8 12 46 44 16 12 22 15 18 25 25 19 25 30 12 32 34 33 23 7 17 5 14 20 26 46 54 59 61 64
33 35 34 34 23 34 21 13 11 6 6 23 16 24 25 25 25 51 41 19 23 23 10 12 24 29 24 23 25 13 44 33 25 14 8 10 8 6 17 25 39 49 53 57 58
29 34 32 28 37 34 23 12 7 6 9 8 14 25 15 38 22 34 39 20 11 10 25 14 15 14 19 27 9 41 32 14 2 4 7 10 12 6 12 21 30 47 55 57 58
23 33 30 36 34 32 22 10 8 12 3 16 11 17 12 22 20 26 24 37 21 12 19 13 18 7 38 22 9 40 30 7 3 3 6 6 17 13 13 20 31 41 53 55 55
21 28 25 36 32 29 18 1 16 1 3 7 9 11 11 24 14 21 9 16 30 21 7 15 1 25 24 18 18 19 15 8 10 10 22 27 11 10 12 14 27 38 47 53 56
6 28 23 28 29 23 8 14 4 3 2 9 6 4 7 10 9 12 15 10 18 26 13 16 5 8 15 15 20 11 9 10 9 9 10 8 9 12 6 7 25 41 53 53 53
2 6 26 21 25 18 13 9 4 1 2 1 7 7 7 12 12 11 8 5 5 16 10 7 11 6 10 6 7 10 12 2 1 10 12 11 22 15 3 21 35 52 55 52 51
5 4 19 13 14 21 9 7 5 7 1 4 1 2 3 7 8 5 6 5 4 9 8 6 3 3 8 8 10 4 4 6 4 8 9 14 9 5 20 28 35 47 53 48 51
5 2 15 11 14 11 6 8 7 10 4 3 2 2 1 2 3 3 3 2 4 6 4 4 5 9 14 16 10 4 0 4 4 4 12 20 23 22 6 34 39 43 45 39 42
5 3 13 7 7 6 5 6 5 8 8 7 7 4 4 3 3 5 2 1 6 3 3 7 3 11 7 8 9 7 8 10 9 9 26 15 14 18 25 39 44 46 46 44 42
3 4 12 18 13 12 10 7 8 7 7 7 5 8 6 6 7 2 4 4 10 13 6 6 8 15 15 19 24 30 32 28 19 15 31 34 47 51 39 40 53 52 52 53 46
6 4 4 4 4 12 8 15 9 10 11 14 8 17 13 7 7 6 8 11 15 22 10 7 13 18 27 38 39 39 43 42 38 44 35 56 43 54 45 45 57 48 51 52 49
3 6 7 7 11 11 5 15 18 10 17 10 16 15 21 10 13 9 9 10 13 7 7 9 14 4 15 35 37 37 43 48 51 54 50 49 55 56 60 46 53 51 40 50 55
8 12 9 12 10 7 7 11 23 19 20 14 23 15 19 26 24 20 21 28 28 17 11 9 7 9 14 5 12 21 31 33 33 37 35 39 43 44 39 48 45 39 46 55 50
Wind_Direction_500mb
34 29 25 22 16 9 4 1 4 5 4 5 18 127 94 83 60 50 25 355 342 352 313 313 257 299 64 21 336 315 242 231 229 220 71 9 353 348 329 304 333 321 329 329 332
30 25 23 21 18 15 10 19 29 20 18 26 54 161 179 111 69 39 15 355 342 352 0 268 309 338 83 24 354 341 310 325 86 48 357 331 342 338 341 332 356 12 21 356 318
28 23 21 21 19 19 19 19 26 28 32 44 58 110 164 170 328 357 3 4 345 349 346 297 210 215 118 125 24 353 310 350 313 356 343 338 331 335 328 321 337 338 328 343 335
27 28 24 26 26 25 22 35 46 45 52 75 72 80 95 37 8 342 352 352 352 347 346 2 223 229 211 191 170 169 259 267 291 290 301 307 310 307 307 320 323 318 311 318 309
26 29 24 27 30 28 37 64 68 62 62 74 66 78 67 61 6 346 353 351 359 2 356 353 272 284 275 263 177 230 211 236 271 293 287 292 287 295 302 345 347 357 2 347 335
27 29 29 24 33 33 47 79 76 73 76 70 71 69 79 58 2 354 5 6 8 18 11 18 14 337 337 316 269 355 303 284 291 289 289 310 307 339 42 19 357 6 2 359 359
25 26 27 24 24 34 51 71 85 81 71 52 46 60 57 34 1 10 14 13 3 6 14 22 24 27 339 262 345 292 288 282 22 4 25 346 279 99 54 353 335 359 355 347 347
21 25 28 26 24 31 64 80 81 64 52 36 54 61 71 18 12 29 22 25 27 29 47 52 67 41 18 306 258 313 248 295 43 10 23 1 304 350 348 351 352 325 347 359 9
20 22 27 27 34 66 74 100 100 72 79 40 65 81 21 12 18 17 9 11 6 48 44 48 53 45 18 329 172 41 342 351 342 39 7 6 325 343 334 348 20 19 10 5 6
19 22 24 27 36 46 109 80 64 297 325 18 43 69 17 349 6 2 23 24 16 25 40 38 44 41 31 23 29 335 336 331 338 351 351 341 343 341 43 49 40 31 24 17 14
20 20 20 27 31 34 111 180 350 35 56 67 39 46 348 7 15 13 26 24 50 61 68 44 64 41 21 14 355 334 326 334 337 1 344 341 338 63 52 49 39 35 27 22 14
23 20 22 32 34 37 57 90 113 132 79 50 45 35 28 17 10 11 23 40 38 43 31 112 47 23 19 17 17 15 16 1 324 346 332 334 344 88 62 47 35 25 20 14 9
27 25 22 28 30 38 50 89 123 120 84 30 30 17 6 7 33 4 7 359 15 36 48 64 20 359 17 23 6 5 5 339 312 324 303 357 137 111 67 47 31 25 20 14 8
33 27 27 24 26 28 42 68 129 114 95 4 5 15 355 16 51 5 9 9 45 21 13 50 19 8 13 21 358 339 354 323 316 336 337 338 274 68 27 27 26 22 17 12 8
30 28 26 30 38 38 35 64 108 84 54 353 4 3 14 56 338 2 3 32 38 17 292 54 15 11 19 357 344 327 318 304 304 299 315 35 259 35 37 12 15 15 17 13 10
31 27 20 37 33 30 35 72 63 47 48 14 360 359 24 28 23 2 24 42 31 9 58 64 33 28 356 315 327 331 320 309 230 183 234 160 1 49 32 11 5 7 7 6 5
32 24 37 35 26 18 22 59 37 56 314 348 344 349 14 14 22 16 33 43 30 356 13 333 41 43 9 352 349 357 355 354 280 282 309 23 322 71 59 28 17 6 1 359 358
43 27 46 33 23 16 29 39 63 116 348 10 327 330 42 8 38 16 39 35 27 12 349 0 317 19 5 22 327 340 349 18 312 319 305 299 257 126 117 32 8 360 353 350 350
82 38 43 30 20 19 36 53 82 163 5 339 287 5 45 35 4 2 47 47 25 13 24 351 356 16 23 353 353 349 30 344 288 231 270 236 117 169 200 348 349 351 347 345 344
163 358 27 22 20 35 67 103 122 89 343 311 32 11 339 7 8 19 38 30 52 19 356 29 290 65 331 288 69 38 4 250 38 300 294 284 294 304 303 328 341 340 338 331 334
131 42 6 8 19 53 73 87 145 155 204 337 61 345 33 350 357 6 1 122 29 26 18 9 330 3 284 29 333 329 49 21 279 264 289 309 279 133 352 357 339 338 335 330 329
89 9 3 16 39 50 79 129 138 157 177 223 218 191 251 0 317 319 327 37 133 13 9 56 303 277 297 336 250 276 205 15 296 259 279 282 276 278 68 350 338 338 339 331 330
69 23 14 62 102 97 122 127 178 161 210 190 197 209 189 214 274 259 267 119 190 283 50 6 220 300 189 161 171 244 234 297 316 274 247 266 275 186 303 326 324 324 325 324 323
62 14 25 56 82 128 146 164 181 203 196 206 191 175 169 222 204 270 241 256 233 207 289 222 248 242 269 302 314 288 279 273 240 261 263 243 267 284 296 321 314 312 316 314 310
76 87 104 61 81 124 148 156 160 190 215 203 217 211 188 184 218 219 247 266 242 247 245 249 259 264 263 275 282 282 280 276 262 257 249 265 279 276 296 301 298 298 312 318 308
99 126 87 104 130 141 167 203 193 185 178 216 228 210 202 193 205 192 218 237 265 209 206 202 271 322 274 265 271 283 277 271 265 264 261 261 268 278 289 293 306 307 320 311 309
129 148 135 159 168 198 214 190 202 184 216 221 216 223 220 232 246 256 258 253 248 247 243 243 265 277 273 349 314 270 255 251 253 258 252 254 262 289 294 297 303 318 314 305 306
Wind_Speed_850mb
31 31 33 35 36 38 39 32 24 20 16 15 10 9 23 30 38 24 28 34 26 14 10 11 13 7 10 9 13 7 11 16 12 7 3 23 22 24 26 14 22 13 16 19 7
34 33 37 38 37 39 40 33 27 24 18 14 8 9 15 13 11 42 31 18 13 13 5 9 9 3 5 9 17 9 6 18 12 3 8 19 26 31 22 29 17 22 16 22 5
36 35 37 38 38 41 40 28 22 24 20 17 11 4 6 12 2 29 34 22 16 14 10 3 5 0 6 6 5 15 8 19 12 21 18 18 21 29 27 17 33 34 31 28 16
36 34 36 35 36 44 42 32 23 25 22 21 31 21 21 6 5 41 38 28 19 13 9 4 5 6 6 7 13 7 18 11 19 20 17 25 28 24 26 32 41 38 32 33 29
36 34 37 36 35 43 42 36 36 32 31 24 17 14 15 26 25 49 34 26 22 15 11 7 5 7 8 1 16 19 15 17 25 26 30 23 24 25 35 22 28 24 28 26 25
34 34 36 34 33 36 34 31 30 36 39 32 28 32 22 42 41 41 32 24 20 18 16 12 9 8 6 3 9 7 9 18 16 22 18 27 29 7 25 32 35 33 34 32 34
35 34 32 34 29 30 26 24 26 26 31 36 23 26 68 30 40 34 28 30 29 17 14 14 11 11 13 2 9 7 10 12 7 20 10 31 12 1 21 39 43 48 42 42 41
34 33 32 33 26 19 17 21 21 14 13 18 16 29 29 43 47 30 33 18 20 22 17 17 17 10 14 15 3 7 5 4 13 30 22 26 8 27 47 38 40 38 46 46 43
33 33 31 34 29 17 19 13 18 27 33 47 26 16 14 49 68 56 41 38 18 16 25 18 13 24 25 5 5 14 8 14 12 24 27 24 21 37 39 37 37 43 39 44 48
33 34 32 33 29 14 9 40 31 9 5 16 55 9 36 43 48 64 26 47 19 10 11 25 13 23 28 25 8 19 16 18 21 25 30 21 24 30 38 40 44 46 49 52 52
33 34 32 34 35 26 5 3 4 20 63 47 25 19 25 44 27 69 45 32 24 29 16 41 27 26 32 23 13 14 17 22 29 20 29 24 22 24 38 47 49 50 53 55 57
33 34 32 23 36 27 14 9 20 26 34 33 28 31 21 32 32 83 61 30 40 36 5 10 34 24 20 31 14 17 18 19 14 32 27 24 12 27 36 43 49 53 56 60 64
33 33 35 20 33 31 32 26 28 21 7 21 33 34 32 27 28 59 56 25 23 28 33 31 22 19 24 31 30 14 19 29 30 33 20 21 24 15 22 45 49 52 52 57 63
32 33 35 33 21 29 32 18 17 11 5 27 30 29 41 8 12 46 44 16 12 22 15 18 25 25 19 25 30 12 32 34 33 23 7 17 5 14 20 26 46 54 59 61 64
33 35 34 34 23 34 21 13 11 6 6 23 16 24 25 25 25 51 41 19 23 23 10 12 24 29 24 23 25 13 44 33 25 14 8 10 8 6 17 25 39 49 53 57 58
29 34 32 28 37 34 23 12 7 6 9 8 14 25 15 38 22 34 39 20 11 10 25 14 15 14 19 27 9 41 32 14 2 4 7 10 12 6 12 21 30 47 55 57 58
23 33 30 36 34 32 22 10 8 12 3 16 11 17 12 22 20 26 24 37 21 12 19 13 18 7 38 22 9 40 30 7 3 3 6 6 17 13 13 20 31 41 53 55 55
21 28 25 36 32 29 18 1 16 1 3 7 9 11 11 24 14 21 9 16 30 21 7 15 1 25 24 18 18 19 15 8 10 10 22 27 11 10 12 14 27 38 47 53 56
6 28 23 28 29 23 8 14 4 3 2 9 6 4 7 10 9 12 15 10 18 26 13 16 5 8 15 15 20 11 9 10 9 9 10 8 9 12 6 7 25 41 53 53 53
2 6 26 21 25 18 13 9 4 1 2 1 7 7 7 12 12 11 8 5 5 16 10 7 11 6 10 6 7 10 12 2 1 10 12 11 22 15 3 21 35 52 55 52 51
5 4 19 13 14 21 9 7 5 7 1 4 1 2 3 7 8 5 6 5 4 9 8 6 3 3 8 8 10 4 4 6 4 8 9 14 9 5 20 28 35 47 53 48 51
5 2 15 11 14 11 6 8 7 10 4 3 2 2 1 2 3 3 3 2 4 6 4 4 5 9 14 16 10 4 0 4 4 4 12 20 23 22 6 34 39 43 45 39 42
5 3 13 7 7 6 5 6 5 8 8 7 7 4 4 3 3 5 2 1 6 3 3 7 3 11 7 8 9 7 8 10 9 9 26 15 14 18 25 39 44 46 46 44 42
3 4 12 18 13 12 10 7 8 7 7 7 5 8 6 6 7 2 4 4 10 13 6 6 8 15 15 19 24 30 32 28 19 15 31 34 47 51 39 40 53 52 52 53 46
6 4 4 4 4 12 8 15 9 10 11 14 8 17 13 7 7 6 8 11 15 22 10 7 13 18 27 38 39 39 43 42 38 44 35 56 43 54 45 45 57 48 51 52 49
3 6 7 7 11 11 5 15 18 10 17 10 16 15 21 10 13 9 9 10 13 7 7 9 14 4 15 35 37 37 43 48 51 54 50 49 55 56 60 46 53 51 40 50 55
8 12 9 12 10 7 7 11 23 19 20 14 23 15 19 26 24 20 21 28 28 17 11 9 7 9 14 5 12 21 31 33 33 37 35 39 43 44 39 48 45 39 46 55 50
Wind_Direction_850mb
34 29 25 22 16 9 4 1 4 5 4 5 18 127 94 83 60 50 25 355 342 352 313 313 257 299 64 21 336 315 242 231 229 220 71 9 353 348 329 304 333 321 329 329 332
30 25 23 21 18 15 10 19 29 20 18 26 54 161 179 111 69 39 15 355 342 352 0 268 309 338 83 24 354 341 310 325 86 48 357 331 342 338 341 332 356 12 21 356 318
28 23 21 21 19 19 19 19 26 28 32 44 58 110 164 170 328 357 3 4 345 349 346 297 210 215 118 125 24 353 310 350 313 356 343 338 331 335 328 321 337 338 328 343 335
27 28 24 26 26 25 22 35 46 45 52 75 72 80 95 37 8 342 352 352 352 347 346 2 223 229 211 191 170 169 259 267 291 290 301 307 310 307 307 320 323 318 311 318 309
26 29 24 27 30 28 37 64 68 62 62 74 66 78 67 61 6 346 353 351 359 2 356 353 272 284 275 263 177 230 211 236 271 293 287 292 287 295 302 345 347 357 2 347 335
27 29 29 24 33 33 47 79 76 73 76 70 71 69 79 58 2 354 5 6 8 18 11 18 14 337 337 316 269 355 303 284 291 289 289 310 307 339 42 19 357 6 2 359 359
25 26 27 24 24 34 51 71 85 81 71 52 46 60 57 34 1 10 14 13 3 6 14 22 24 27 339 262 345 292 288 282 22 4 25 346 279 99 54 353 335 359 355 347 347
21 25 28 26 24 31 64 80 81 64 52 36 54 61 71 18 12 29 22 25 27 29 47 52 67 41 18 306 258 313 248 295 43 10 23 1 304 350 348 351 352 325 347 359 9
20 22 27 27 34 66 74 100 100 72 79 40 65 81 21 12 18 17 9 11 6 48 44 48 53 45 18 329 172 41 342 351 342 39 7 6 325 343 334 348 20 19 10 5 6
19 22 24 27 36 46 109 80 64 297 325 18 43 69 17 349 6 2 23 24 16 25 40 38 44 41 31 23 29 335 336 331 338 351 351 341 343 341 43 49 40 31 24 17 14
20 20 20 27 31 34 111 180 350 35 56 67 39 46 348 7 15 13 26 24 50 61 68 44 64 41 21 14 355 334 326 334 337 1 344 341 338 63 52 49 39 35 27 22 14
23 20 22 32 34 37 57 90 113 132 79 50 45 35 28 17 10 11 23 40 38 43 31 112 47 23 19 17 17 15 16 1 324 346 332 334 344 88 62 47 35 25 20 14 9
27 25 22 28 30 38 50 89 123 120 84 30 30 17 6 7 33 4 7 359 15 36 48 64 20 359 17 23 6 5 5 339 312 324 303 357 137 111 67 47 31 25 20 14 8
33 27 27 24 26 28 42 68 129 114 95 4 5 15 355 16 51 5 9 9 45 21 13 50 19 8 13 21 358 339 354 323 316 336 337 338 274 68 27 27 26 22 17 12 8
30 28 26 30 38 38 35 64 108 84 54 353 4 3 14 56 338 2 3 32 38 17 292 54 15 11 19 357 344 327 318 304 304 299 315 35 259 35 37 12 15 15 17 13 10
31 27 20 37 33 30 35 72 63 47 48 14 360 359 24 28 23 2 24 42 31 9 58 64 33 28 356 315 327 331 320 309 230 183 234 160 1 49 32 11 5 7 7 6 5
32 24 37 35 26 18 22 59 37 56 314 348 344 349 14 14 22 16 33 43 30 356 13 333 41 43 9 352 349 357 355 354 280 282 309 23 322 71 59 28 17 6 1 359 358
43 27 46 33 23 16 29 39 63 116 348 10 327 330 42 8 38 16 39 35 27 12 349 0 317 19 5 22 327 340 349 18 312 319 305 299 257 126 117 32 8 360 353 350 350
82 38 43 30 20 19 36 53 82 163 5 339 287 5 45 35 4 2 47 47 25 13 24 351 356 16 23 353 353 349 30 344 288 231 270 236 117 169 200 348 349 351 347 345 344
163 358 27 22 20 35 67 103 122 89 343 311 32 11 339 7 8 19 38 30 52 19 356 29 290 65 331 288 69 38 4 250 38 300 294 284 294 304 303 328 341 340 338 331 334
131 42 6 8 19 53 73 87 145 155 204 337 61 345 33 350 357 6 1 122 29 26 18 9 330 3 284 29 333 329 49 21 279 264 289 309 279 133 352 357 339 338 335 330 329
89 9 3 16 39 50 79 129 138 157 177 223 218 191 251 0 317 319 327 37 133 13 9 56 303 277 297 336 250 276 205 15 296 259 279 282 276 278 68 350 338 338 339 331 330
69 23 14 62 102 97 122 127 178 161 210 190 197 209 189 214 274 259 267 119 190 283 50 6 220 300 189 161 171 244 234 297 316 274 247 266 275 186 303 326 324 324 325 324 323
62 14 25 56 82 128 146 164 181 203 196 206 191 175 169 222 204 270 241 256 233 207 289 222 248 242 269 302 314 288 279 273 240 261 263 243 267 284 296 321 314 312 316 314 310
76 87 104 61 81 124 148 156 160 190 215 203 217 211 188 184 218 219 247 266 242 247 245 249 259 264 263 275 282 282 280 276 262 257 249 265 279 276 296 301 298 298 312 318 308
99 126 87 104 130 141 167 203 193 185 178 216 228 210 202 193 205 192 218 237 265 209 206 202 271 322 274 265 271 283 277 271 265 264 261 261 268 278 289 293 306 307 320 311 309
129 148 135 159 168 198 214 190 202 184 216 221 216 223 220 232 246 256 258 253 248 247 243 243 265 277 273 349 314 270 255 251 253 258 252 254 262 289 294 297 303 318 314 305 306